Tracking 29892 objects as of 21-Nov-2024
HD Live streaming from Space Station
objects crossing your sky now

CZ-6A DEB

Track CZ-6A DEB now!
10-day predictions


NORAD ID: 54311
Int'l Code: 2022-151BE
Perigee: 642.7 km
Apogee: 772.5 km
Inclination: 98.7 °
Period: 98.8 minutes
Semi major axis: 7078 km
RCS: Unknown
Launch date: November 11, 2022
Source: People's Republic of China (PRC)
Launch site: Taiyaun Space Center, China (TSC)

Note: This is SATELLITE DEBRIS
Your satellite tracking list
Your tracking list is empty




NASA's NSSDC Master Catalog

Two Line Element Set (TLE):
1 54311U 22151BE  24325.91386011  .00021035  00000-0  43438-2 0  9995
2 54311  98.6597 356.5275 0091659 242.1331 117.0558 14.57753989106247
Source of the keplerian elements: AFSPC